ASIASTAR

Last updated on Tue Sep 22 2026 00:03:10 GMT+0000 (Coordinated Universal Time)

1 26107U 00016A 26264.36730346 -.00000332 00000+0 00000+0 0 9992 2 26107 9.3491 57.0945 0003955 126.0003 54.4150 1.00272173 96881
UTC large
Height (km)
Speed (km/s)
/
Latitude / Longitude
Inclination (degrees)
Orbital Period (minutes)
Azimuth
Elevation
Range (km)
Doppler Factor

Next 0 passes for location: London (51.5072 / 0.1276)

No passes found over London.
ASIASTAR